SECOR 3

Satellite information

Favourite Embed

Satellite Type and Status

PAYLOADIN ORBIT

Key statistics

Satellite SECOR 3 at a glance.

Uptime

22034

Days in orbit

Revolutions

≈ 14.0

Per day

Orbit

LEO

Low Earth Orbit

Inclination

70.1

Latest

Satellite identification and parameters

Extended collection of information and parameters for SECOR 3.

Object identification

Identified? True

Debris? False

Object name: SECOR 3

International designator: 1965-016E

Object number (NORAD): 1208

Object ID (CCSDS): 1208

Country: UNITED STATES OF AMERICA (US)

Current information (Y/N): Y

RCS size: MEDIUM

Orbital parameters

Period: 103.152 minutes

Inclination: 70.0774 deg

SMA: 7285.8 km

Apoapsis: 922.483 km

Periapsis: 892.846 km

RAAN: 202.423 deg

Eccentricy: 0.0020339

Argument of periapsis: 189.0361 deg

Mean anomaly: 291.676 deg

Mean motion: 13.9600485 rev/day

Mean motion (dot): 0.00000023 rev/day2

B* drag term: 0.000055272 1/REarth

Two-line elements (TLE)

Creation date: July 5, 2025, 5:45 p.m.

Reference frame: TEME

Reference center: EARTH

Epoch: July 5, 2025, 12:32 p.m. UTC

TLE line 0: 0 SECOR 3

TLE line 1: 1 01208U 65016E 25186.52234182 .00000023 00000-0 55272-4 0 9998

TLE line 2: 2 01208 70.0774 202.4230 0020339 189.0361 291.6760 13.96004850 70785

Live tracking on map

Real-time ground track for satellite SECOR 3.

In-orbit conjunctions

A list of the most updated potential collisions computed for object SECOR 3.

Target Orbit TCA Probability of collision Miss distance Type
SL-16 DEB LEO 2025-06-16 22:00:12 0.0001411019 904.0 (m) DEBRIS

Associated space launch

Poppy was the follow-on ELINT system, which succeeded the Grab ELINT satellite system.

SECOR 3 was lifted into orbit during the mission ‘Thor SLV-2 Agena D | Poppy 6A,B,C,D’, on board a Thor SLV-2 Agena D space rocket.

The launch took place on March 9, 1965, 6:29 p.m. from Space Launch Complex 2W.

For more information about the launch, click the button.

Launch to space Thor SLV-2 Agena D | Poppy 6A,B,C,D
Thor SLV-2 Agena D | Poppy 6A,B,C,D

Agency: N/A

Status: Launch Successful

Launch date: March 9, 1965, 6:29 p.m. UTC

Rocket: Thor SLV-2 Agena D

Launch pad: Space Launch Complex 2W

Location: Vandenberg SFB, CA, USA

...

Latest news about this satellite

There are no fresh news available about this satellite. Check back as we update our databases every day.


Newsletter sign-up

Weekly statistics, charts and insights to help you stay on top of the space industry.